This is the latest recevied weather packets stored in our database for station/object WD7CGF. If no packets are shown the sender has not sent any weather packets the latest 10 day(s).
| Time | Temp. | Humidity | Pressure | Rain* | Wind** | Luminosity | Snow |
|---|---|---|---|---|---|---|---|
| 1777754903 | 26.67° C | 32% | 1014.1 hPa | 0 mm | - | - | - |
| 1777754289 | 26.67° C | 32% | 1014.3 hPa | 0 mm | - | - | - |
| 1777753695 | 26.67° C | 35% | 1014.4 hPa | 0 mm | - | - | - |
| 1777753099 | 26.67° C | 32% | 1014.4 hPa | 0 mm | - | - | - |
| 1777752489 | 26.67° C | 34% | 1014.5 hPa | 0 mm | - | - | - |
| 1777751898 | 26.67° C | 39% | 1014.8 hPa | 0 mm | - | - | - |
| 1777750695 | 25.56° C | 37% | 1015 hPa | 0 mm | - | - | - |
| 1777750102 | 25.56° C | 34% | 1014.2 hPa | 0 mm | - | - | - |
| 1777749489 | 25° C | 39% | 1014.2 hPa | 0 mm | - | - | - |
| 1777748893 | 25° C | 36% | 1015.2 hPa | 0 mm | - | - | - |
| 1777748302 | 25° C | 40% | 1014.6 hPa | 0 mm | - | - | - |
| 1777747688 | 24.44° C | 40% | 1014.6 hPa | 0 mm | - | - | - |
| 1777747094 | 23.89° C | 39% | 1014.7 hPa | 0 mm | - | - | - |
| 1777746485 | 23.89° C | 39% | 1014.7 hPa | 0 mm | - | - | - |
| 1777745296 | 23.33° C | 42% | 1014.7 hPa | 0 mm | - | - | - |
| 1777744685 | 23.33° C | 42% | 1014.7 hPa | 0 mm | - | - | - |
| 1777744093 | 22.78° C | 45% | 1014.7 hPa | 0 mm | - | - | - |
| 1777743501 | 22.22° C | 51% | 1015 hPa | 0 mm | - | - | - |
| 1777742894 | 22.22° C | 49% | 1015.1 hPa | 0 mm | - | - | - |
| 1777742300 | 21.67° C | 49% | 1015.1 hPa | 0 mm | - | - | - |
| 1777741688 | 21.11° C | 54% | 1015.1 hPa | 0 mm | - | - | - |
| 1777741100 | 21.11° C | 51% | 1015 hPa | 0 mm | - | - | - |
| 1777740488 | 20.56° C | 53% | 1015 hPa | 0 mm | - | - | - |
| 1777739896 | 20.56° C | 54% | 1015 hPa | 0 mm | - | - | - |
| 1777739285 | 20° C | 55% | 1015.1 hPa | 0 mm | - | - | - |
* Rain since midnight (hover to see other rain measurements)
** Current wind speed in m/s (hover to see current wind gust speed)